THAICOM 4

Last updated on Wed Sep 09 2026 00:02:58 GMT+0000 (Coordinated Universal Time)

1 28786U 05028A 26251.39749962 -.00000383 00000+0 00000+0 0 9994 2 28786 0.4542 84.7229 0000534 58.4227 106.9214 1.00270711 53088
UTC large
Height (km)
Speed (km/s)
/
Latitude / Longitude
Inclination (degrees)
Orbital Period (minutes)
Azimuth
Elevation
Range (km)
Doppler Factor

Next 0 passes for location: London (51.5072 / 0.1276)

No passes found over London.
THAICOM 4